When you browse on this site, cookies collect data to enhance your experience and personalize the content and advertising you see.
Visit our Privacy Policy to learn more. By continuing to use the site, you agree to this use of cookies and data.
  • In Hungary
  • List of Countries
  • For 7 days
  • Water Temperature
  • Satellite Maps
  • Weather Map
  • News
  • Weather Widgets
  • user-avatar
    Login

    Hourly Weather Viktoriya

    Today, 24 July, Wednesday

    Time Temperature Precipitation Wind Pressure Humidity
    00:00 +15°C° 0 mm 2 mps 748 mmHg 93%
    01:00 +15°C° 0 mm 2 mps 748 mmHg 94%
    02:00 +15°C° 0 mm 2 mps 748 mmHg 95%
    03:00 +15°C° 0 mm 2 mps 748 mmHg 95%
    04:00 +15°C° 0 mm 2 mps 747 mmHg 95%
    05:00 +15°C° 0 mm 2 mps 747 mmHg 95%
    06:00 +16°C° 0.4 mm 2 mps 747 mmHg 94%
    07:00 +17°C° 0.4 mm 3 mps 747 mmHg 93%
    08:00 +17°C° 0.4 mm 3 mps 747 mmHg 92%
    09:00 +18°C° 0.6 mm 3 mps 747 mmHg 90%
    10:00 +19°C° 0.6 mm 4 mps 747 mmHg 88%
    11:00 +19°C° 0.6 mm 4 mps 747 mmHg 86%
    12:00 +20°C° 0.3 mm 4 mps 747 mmHg 80%
    13:00 +22°C° 0.3 mm 4 mps 747 mmHg 74%
    14:00 +23°C° 0.3 mm 4 mps 747 mmHg 68%
    15:00 +23°C° 0.4 mm 4 mps 747 mmHg 70%
    16:00 +23°C° 0.4 mm 4 mps 747 mmHg 72%
    17:00 +23°C° 0.4 mm 4 mps 747 mmHg 73%
    18:00 +21°C° 0.3 mm 4 mps 747 mmHg 80%
    19:00 +20°C° 0.3 mm 3 mps 747 mmHg 86%
    20:00 +18°C° 0.3 mm 3 mps 747 mmHg 92%
    21:00 +18°C° 0 mm 3 mps 747 mmHg 93%
    22:00 +17°C° 0 mm 3 mps 748 mmHg 93%
    23:00 +17°C° 0 mm 3 mps 748 mmHg 94%

    Tomorrow, 25 July, Thursday

    Time Temperature Precipitation Wind Pressure Humidity
    00:00 +16°C° 0 mm 3 mps 748 mmHg 94%
    01:00 +16°C° 0 mm 3 mps 748 mmHg 95%
    02:00 +15°C° 0 mm 4 mps 748 mmHg 95%
    03:00 +14°C° 0 mm 3 mps 748 mmHg 95%
    04:00 +14°C° 0 mm 3 mps 748 mmHg 94%
    05:00 +14°C° 0 mm 3 mps 748 mmHg 94%
    06:00 +15°C° 0 mm 4 mps 748 mmHg 89%
    07:00 +18°C° 0 mm 4 mps 748 mmHg 83%
    08:00 +19°C° 0 mm 5 mps 749 mmHg 77%
    09:00 +20°C° 0 mm 5 mps 749 mmHg 73%
    10:00 +22°C° 0 mm 6 mps 749 mmHg 69%
    11:00 +23°C° 0 mm 6 mps 749 mmHg 64%
    12:00 +23°C° 0.6 mm 6 mps 749 mmHg 64%
    13:00 +23°C° 0.6 mm 6 mps 749 mmHg 64%
    14:00 +24°C° 0.6 mm 6 mps 748 mmHg 64%
    15:00 +24°C° 0.2 mm 6 mps 748 mmHg 63%
    16:00 +24°C° 0.2 mm 6 mps 748 mmHg 62%
    17:00 +25°C° 0.2 mm 5 mps 748 mmHg 61%
    18:00 +22°C° 0 mm 4 mps 748 mmHg 67%
    19:00 +20°C° 0 mm 3 mps 748 mmHg 74%
    20:00 +19°C° 0 mm 2 mps 748 mmHg 80%
    21:00 +18°C° 0 mm 2 mps 748 mmHg 82%
    22:00 +18°C° 0 mm 2 mps 748 mmHg 84%
    23:00 +17°C° 0 mm 2 mps 748 mmHg 86%

    Day after tomorrow, 26 July, Friday

    Time Temperature Precipitation Wind Pressure Humidity
    00:00 +17°C° 0.1 mm 2 mps 748 mmHg 87%
    01:00 +16°C° 0.1 mm 2 mps 748 mmHg 89%
    02:00 +16°C° 0.1 mm 2 mps 748 mmHg 90%
    03:00 +16°C° 0 mm 2 mps 748 mmHg 91%
    04:00 +16°C° 0 mm 2 mps 748 mmHg 91%
    05:00 +16°C° 0 mm 2 mps 747 mmHg 91%
    06:00 +17°C° 0 mm 2 mps 747 mmHg 84%
    07:00 +19°C° 0 mm 2 mps 747 mmHg 78%
    08:00 +21°C° 0 mm 2 mps 747 mmHg 71%
    09:00 +23°C° 0 mm 2 mps 747 mmHg 66%
    10:00 +24°C° 0 mm 2 mps 747 mmHg 60%
    11:00 +25°C° 0 mm 2 mps 747 mmHg 54%
    12:00 +26°C° 0 mm 2 mps 747 mmHg 52%
    13:00 +27°C° 0 mm 2 mps 747 mmHg 49%
    14:00 +27°C° 0 mm 2 mps 746 mmHg 47%
    15:00 +27°C° 0 mm 2 mps 746 mmHg 49%
    16:00 +27°C° 0 mm 2 mps 746 mmHg 51%
    17:00 +27°C° 0 mm 2 mps 746 mmHg 52%
    18:00 +25°C° 0 mm 2 mps 746 mmHg 59%
    19:00 +23°C° 0 mm 2 mps 746 mmHg 66%
    20:00 +20°C° 0 mm 2 mps 746 mmHg 73%
    21:00 +20°C° 0 mm 1 mps 746 mmHg 78%
    22:00 +20°C° 0 mm 1 mps 746 mmHg 82%
    23:00 +19°C° 0 mm 1 mps 746 mmHg 87%

    27 July, Saturday

    Time Temperature Precipitation Wind Pressure Humidity
    00:00 +18°C° 0 mm 1 mps 746 mmHg 88%
    01:00 +18°C° 0 mm 1 mps 745 mmHg 90%
    02:00 +18°C° 0 mm 1 mps 745 mmHg 91%
    03:00 +16°C° 0 mm 1 mps 745 mmHg 92%
    04:00 +16°C° 0 mm 1 mps 745 mmHg 94%
    05:00 +16°C° 0 mm 1 mps 745 mmHg 95%
    06:00 +19°C° 0 mm 1 mps 745 mmHg 90%
    07:00 +20°C° 0 mm 1 mps 745 mmHg 85%
    08:00 +20°C° 0 mm 2 mps 745 mmHg 81%
    09:00 +21°C° 0 mm 2 mps 745 mmHg 75%
    10:00 +24°C° 0 mm 1 mps 745 mmHg 69%
    11:00 +25°C° 0 mm 1 mps 745 mmHg 63%
    12:00 +26°C° 0 mm 1 mps 745 mmHg 59%
    13:00 +27°C° 0 mm 1 mps 744 mmHg 55%
    14:00 +28°C° 0 mm 1 mps 744 mmHg 51%
    15:00 +28°C° 0.2 mm 1 mps 744 mmHg 53%
    16:00 +27°C° 0.2 mm 2 mps 744 mmHg 55%
    17:00 +27°C° 0.2 mm 2 mps 744 mmHg 57%
    18:00 +25°C° 0.3 mm 2 mps 744 mmHg 66%
    19:00 +22°C° 0.3 mm 3 mps 744 mmHg 75%
    20:00 +20°C° 0.3 mm 3 mps 744 mmHg 84%
    21:00 +20°C° 0.2 mm 3 mps 744 mmHg 87%
    22:00 +19°C° 0.2 mm 3 mps 744 mmHg 90%
    23:00 +18°C° 0.2 mm 3 mps 744 mmHg 92%

    28 July, Sunday

    Time Temperature Precipitation Wind Pressure Humidity
    00:00 +18°C° 0.2 mm 2 mps 743 mmHg 93%
    01:00 +18°C° 0.2 mm 2 mps 743 mmHg 93%
    02:00 +17°C° 0.2 mm 2 mps 743 mmHg 94%
    03:00 +17°C° 0 mm 2 mps 743 mmHg 95%
    04:00 +17°C° 0 mm 2 mps 743 mmHg 95%
    05:00 +17°C° 0 mm 3 mps 743 mmHg 96%
    06:00 +18°C° 0 mm 3 mps 743 mmHg 91%
    07:00 +20°C° 0 mm 3 mps 743 mmHg 85%
    08:00 +22°C° 0 mm 3 mps 743 mmHg 79%
    09:00 +24°C° 0.3 mm 3 mps 743 mmHg 76%
    10:00 +24°C° 0.3 mm 3 mps 743 mmHg 72%
    11:00 +25°C° 0.3 mm 3 mps 743 mmHg 69%
    12:00 +26°C° 0.4 mm 3 mps 743 mmHg 67%
    13:00 +26°C° 0.4 mm 2 mps 743 mmHg 65%
    14:00 +27°C° 0.4 mm 2 mps 742 mmHg 63%
    15:00 +27°C° 0.5 mm 2 mps 742 mmHg 65%
    16:00 +26°C° 0.5 mm 3 mps 742 mmHg 67%
    17:00 +26°C° 0.5 mm 3 mps 742 mmHg 69%
    18:00 +25°C° 0.2 mm 3 mps 742 mmHg 75%
    19:00 +22°C° 0.2 mm 3 mps 742 mmHg 81%
    20:00 +21°C° 0.2 mm 3 mps 742 mmHg 87%
    21:00 +20°C° 0.1 mm 4 mps 743 mmHg 89%
    22:00 +19°C° 0.1 mm 4 mps 743 mmHg 91%
    23:00 +19°C° 0.1 mm 5 mps 743 mmHg 93%

    29 July, Monday

    Time Temperature Precipitation Wind Pressure Humidity
    00:00 +17°C° 0 mm 5 mps 743 mmHg 91%
    01:00 +16°C° 0 mm 5 mps 744 mmHg 89%
    02:00 +16°C° 0 mm 5 mps 744 mmHg 87%
    03:00 +15°C° 0 mm 5 mps 744 mmHg 85%
    04:00 +14°C° 0 mm 5 mps 744 mmHg 83%
    05:00 +13°C° 0 mm 5 mps 744 mmHg 82%
    06:00 +14°C° 0 mm 5 mps 745 mmHg 77%
    07:00 +14°C° 0 mm 5 mps 745 mmHg 73%
    08:00 +15°C° 0 mm 5 mps 745 mmHg 68%
    09:00 +16°C° 0 mm 5 mps 746 mmHg 64%
    10:00 +17°C° 0 mm 5 mps 746 mmHg 61%
    11:00 +19°C° 0 mm 5 mps 746 mmHg 57%
    12:00 +19°C° 0 mm 5 mps 746 mmHg 56%
    13:00 +19°C° 0 mm 6 mps 746 mmHg 56%
    14:00 +19°C° 0 mm 6 mps 746 mmHg 55%
    15:00 +17°C° 0 mm 6 mps 746 mmHg 57%
    16:00 +17°C° 0 mm 5 mps 746 mmHg 58%
    17:00 +16°C° 0 mm 5 mps 747 mmHg 59%
    18:00 +15°C° 0 mm 5 mps 747 mmHg 61%
    19:00 +14°C° 0 mm 4 mps 747 mmHg 63%
    20:00 +13°C° 0 mm 4 mps 748 mmHg 65%
    21:00 +12°C° 0 mm 3 mps 748 mmHg 68%
    22:00 +11°C° 0 mm 3 mps 748 mmHg 71%
    23:00 +10°C° 0 mm 2 mps 749 mmHg 73%
    Show more